This is the latest recevied weather packets stored in our database for station/object W0DXV. If no packets are shown the sender has not sent any weather packets the latest 10 day(s).
| Time | Temp. | Humidity | Pressure | Rain* | Wind** | Luminosity | Snow |
|---|---|---|---|---|---|---|---|
| 1777910326 | 23.33° C | 39% | 1013.3 hPa | 0 mm | - | 713 W/m² | - |
| 1777910023 | 22.78° C | 38% | 1013.3 hPa | 0 mm | - | 706 W/m² | - |
| 1777909720 | 22.78° C | 42% | 1013.4 hPa | 0 mm | - | 701 W/m² | - |
| 1777909418 | 22.22° C | 40% | 1013.4 hPa | 0 mm | - | 694 W/m² | - |
| 1777909116 | 22.22° C | 38% | 1013.3 hPa | 0 mm | - | 688 W/m² | - |
| 1777908813 | 21.67° C | 43% | 1013.3 hPa | 0 mm | - | 681 W/m² | - |
| 1777908509 | 21.67° C | 42% | 1013.4 hPa | 0 mm | - | 672 W/m² | - |
| 1777908207 | 21.11° C | 44% | 1013.2 hPa | 0 mm | - | 665 W/m² | - |
| 1777907903 | 21.67° C | 42% | 1013.3 hPa | 0 mm | - | 656 W/m² | - |
| 1777907598 | 21.11° C | 43% | 1013.3 hPa | 0 mm | - | 648 W/m² | - |
| 1777907294 | 21.11° C | 42% | 1013.4 hPa | 0 mm | - | 637 W/m² | - |
| 1777906991 | 21.11° C | 44% | 1013.3 hPa | 0 mm | - | 627 W/m² | - |
| 1777906689 | 20.56° C | 46% | 1013.3 hPa | 0 mm | - | 618 W/m² | - |
| 1777906385 | 20.56° C | 43% | 1013.2 hPa | 0 mm | - | 604 W/m² | - |
| 1777906081 | 20.56° C | 42% | 1013.2 hPa | 0 mm | - | 593 W/m² | - |
| 1777905778 | 20° C | 45% | 1013.3 hPa | 0 mm | - | 583 W/m² | - |
| 1777905475 | 20° C | 50% | 1013.3 hPa | 0 mm | - | 570 W/m² | - |
| 1777905172 | 20° C | 50% | 1013.2 hPa | 0 mm | - | 557 W/m² | - |
| 1777904870 | 19.44° C | 53% | 1013.2 hPa | 0 mm | - | 545 W/m² | - |
| 1777904567 | 18.89° C | 53% | 1013.2 hPa | 0 mm | - | 532 W/m² | - |
| 1777904263 | 18.33° C | 58% | 1013.2 hPa | 0 mm | - | 520 W/m² | - |
| 1777903961 | 17.22° C | 57% | 1013.1 hPa | 0 mm | - | 507 W/m² | - |
| 1777903657 | 17.78° C | 59% | 1013.3 hPa | 0 mm | - | 496 W/m² | - |
| 1777903353 | 17.78° C | 60% | 1013.3 hPa | 0 mm | - | 481 W/m² | - |
| 1777903050 | 17.22° C | 62% | 1013.3 hPa | 0 mm | - | 467 W/m² | - |
* Rain latest hour (hover to see other rain measurements)
** Current wind speed in m/s (hover to see current wind gust speed)